This is the latest recevied weather packets stored in our database for station/object DG8AAC-L2. If no packets are shown the sender has not sent any weather packets the latest 10 day(s).
| Time | Temp. | Humidity | Pressure | Rain* | Wind** | Luminosity | Snow |
|---|---|---|---|---|---|---|---|
| 1777843417 | 18.89° C | 33% | 1013.6 hPa | - | - | - | - |
| 1777841617 | 19.44° C | 32% | 1013.5 hPa | - | - | - | - |
| 1777839817 | 19.44° C | 31% | 1013.2 hPa | - | - | - | - |
| 1777838017 | 20° C | 29% | 1013 hPa | - | - | - | - |
| 1777836217 | 20.56° C | 28% | 1012.7 hPa | - | - | - | - |
| 1777834417 | 20.56° C | 28% | 1012.4 hPa | - | - | - | - |
| 1777832617 | 21.11° C | 28% | 1012.1 hPa | - | - | - | - |
| 1777830817 | 21.67° C | 28% | 1012 hPa | - | - | - | - |
| 1777829016 | 21.67° C | 28% | 1012.1 hPa | - | - | - | - |
| 1777827216 | 21.67° C | 27% | 1012.2 hPa | - | - | - | - |
| 1777825416 | 21.11° C | 27% | 1012.3 hPa | - | - | - | - |
| 1777823616 | 21.11° C | 26% | 1012.2 hPa | - | - | - | - |
| 1777821816 | 21.11° C | 27% | 1012.3 hPa | - | - | - | - |
| 1777820016 | 21.67° C | 27% | 1012.6 hPa | - | - | - | - |
| 1777818216 | 21.67° C | 28% | 1012.7 hPa | - | - | - | - |
| 1777816416 | 21.67° C | 28% | 1013.1 hPa | - | - | - | - |
| 1777814616 | 21.67° C | 26% | 1013.5 hPa | - | - | - | - |
| 1777812816 | 22.22° C | 25% | 1013.8 hPa | - | - | - | - |
| 1777811016 | 22.78° C | 25% | 1013.6 hPa | - | - | - | - |
| 1777809216 | 23.33° C | 25% | 1014 hPa | - | - | - | - |
| 1777807416 | 23.33° C | 27% | 1014.1 hPa | - | - | - | - |
| 1777805615 | 23.89° C | 30% | 1014.3 hPa | - | - | - | - |
| 1777803815 | 23.89° C | 28% | 1014.4 hPa | - | - | - | - |
| 1777802014 | 24.44° C | 31% | 1014.2 hPa | - | - | - | - |
| 1777800213 | 23.89° C | 31% | 1014.6 hPa | - | - | - | - |
* Rain since midnight (hover to see other rain measurements)
** Current wind speed in m/s (hover to see current wind gust speed)